This demonstration page uses our WeatherBlox Daily Observations layout. Learn more.

41.55636, -103.73856

Hourly Observations for December 20, 2015

Temp ( °F °C ) Dew Point ( °F °C ) Humidity (%) Winds ( mph kmh ) Pressure ( in mb ) Visibility ( mi km ) Precip ( " mm )
12:53 am 00:53 Clear 21 -6.1 17 -8.3 85 85 NNW 12 19 29.82 1010 8 12.87472 0 0
1:53 am 01:53 Clear 21 -6.1 17 -8.3 85 85 SSE 3 6 29.83 1010 7 11.26538 0 0
2:53 am 02:53 Clear 21 -6.1 17 -8.3 85 85 N 13 20 29.83 1010 7 11.26538 0 0
3:53 am 03:53 Clear 20 -6.7 16 -8.9 85 85 Calm 29.85 1011 7 11.26538 0 0
4:53 am 04:53 Clear with Mist and Fog 20 -6.7 17 -8.3 89 89 N 8 13 29.83 1010 6 9.65604 0 0
5:53 am 05:53 Clear with Mist and Fog 22 -5.6 18 -7.8 85 85 SSE 3 6 29.85 1011 6 9.65604 0 0
6:53 am 06:53 Clear 26 -3.3 20 -6.7 78 78 Calm 29.83 1010 8 12.87472 0 0
7:53 am 07:53 Sunny 29 -1.7 22 -5.6 75 75 SSW 5 7 29.81 1010 10 16.0934 0 0
8:53 am 08:53 Sunny 30 -1.1 23 -5 75 75 WNW 5 7 29.84 1011 10 16.0934 0 0
9:53 am 09:53 Sunny 36 2.2 26 -3.3 67 67 NNW 10 17 29.83 1010 10 16.0934 0 0
10:53 am 10:53 Sunny 39 3.9 27 -2.8 62 62 N 8 13 29.82 1010 10 16.0934 0 0
11:53 am 11:53 Sunny 38 3.3 27 -2.8 65 65 NNE 9 15 29.83 1010 10 16.0934 0 0
12:53 pm 12:53 Mostly Sunny 35 1.7 26 -3.3 70 70 N 14 22 29.81 1010 10 16.0934 0 0
1:53 pm 13:53 Mostly Cloudy 32 0 25 -3.9 75 75 NNE 10 17 29.84 1011 10 16.0934 0 0
2:53 pm 14:53 Mostly Sunny 31 -0.6 25 -3.9 79 79 NE 10 17 29.88 1012 10 16.0934 0 0
3:53 pm 15:53 Sunny 30 -1.1 24 -4.4 79 79 NNE 9 15 29.91 1013 10 16.0934 0 0
4:53 pm 16:53 Clear 28 -2.2 23 -5 81 81 Calm 29.93 1014 10 16.0934 0 0
5:53 pm 17:53 Clear 25 -3.9 22 -5.6 88 88 Calm 29.95 1014 10 16.0934 0 0
6:53 pm 18:53 Partly Cloudy 23 -5 20 -6.7 88 88 Calm 29.94 1014 9 14.48406 0 0
7:03 pm 19:03 Mostly Cloudy 23 -5 21 -6 93 93 S 5 7 30.03 1017 7 11.26538 0 0
7:53 pm 19:53 Cloudy 23 -5 21 -6.1 92 92 S 3 6 29.93 1014 8 12.87472 0 0
8:53 pm 20:53 Cloudy 24 -4.4 22 -5.6 91 91 Calm 29.91 1013 8 12.87472 0 0
9:11 pm 21:11 Cloudy 25 -3.9 23 -5 92 92 Calm 30 1016 9 14.48406 0 0
9:53 pm 21:53 Cloudy 26 -3.3 23 -5 88 88 Calm 29.89 1012 9 14.48406 0 0
10:53 pm 22:53 Cloudy 26 -3.3 23 -5 88 88 SSW 3 6 29.87 1012 8 12.87472 0 0
11:35 pm 23:35 Cloudy 26 -3.3 24 -4.4 92 92 SE 6 9 29.94 1014 7 11.26538 0 0
11:53 pm 23:53 Cloudy with Mist and Fog 26 -3.3 24 -4.4 92 92 SE 5 7 29.87 1011 6 9.65604 0 0

Powered by AerisWeather